Home   Weather   Apeldoorn   Past weeks

Flag for Netherlands Past Weather in Apeldoorn, Netherlands — Yesterday and Last 2 Weeks

Now
66 °F

Overcast.


Feels Like: 66 °F
Forecast: 58 / 67 °F
Wind: 7 mph from Southwest

Location: Deelen

Current Time: Sep 28, 2016 at 10:40:42 PM

Latest Report: Sep 28, 2016 at 9:55 PM


Visibility: N/A

Pressure: 30.15 "Hg

Humidity: 64%

Dew Point: 54 °F

Location of ApeldoornLocation

Past Weather in Apeldoorn — Graph

°F

Apeldoorn Temperature Yesterday

Maximum temperature yesterday: 70 °F (at 3:25 PM)
Minimum temperature yesterday: 39 °F (at 5:55 AM)
Average temperature yesterday: 55 °F

High & Low Weather Summary for the Past Weeks

 TemperatureHumidityPressure
High90 °F (Sep 14, 1:55 PM)100% (Sep 16, 4:25 AM)30.30 "Hg (Sep 16, 4:25 AM)
Low39 °F (Sep 27, 5:55 AM)29% (Sep 14, 3:25 PM)29.80 "Hg (Sep 15, 2:55 PM)
Average62 °F73%30.08 "Hg
* Reported Sep 13 9:25 PM — Sep 28 9:25 PM, Apeldoorn, Weather by CustomWeather, © 2016

Note: Actual official high and low records may vary slightly from our data, if they occured in-between our weather recording intervals... More about our weather records

Advertising

Apeldoorn Weather History for the Previous 24 Hours

Scroll right to see more
 ConditionsComfort  
Time TempWeatherWind HumidityBarometerVisibility
9:25 PM
Wed, Sep 28
64 °FOvercast.3 mph68%30.15 "HgN/A
8:55 PM64 °FPassing clouds.3 mph68%30.18 "HgN/A
8:25 PM64 °FPassing clouds.7 mph68%30.18 "HgN/A
7:55 PM64 °FPassing clouds.7 mph68%30.18 "HgN/A
7:25 PM66 °FPassing clouds.6 mph60%30.18 "HgN/A
6:55 PM68 °FPassing clouds.10 mph56%30.18 "HgN/A
6:25 PM68 °FScattered clouds.12 mph60%30.18 "HgN/A
5:55 PM70 °FPartly sunny.13 mph57%30.18 "HgN/A
5:25 PM70 °FOvercast.14 mph57%30.18 "HgN/A
4:55 PM70 °FScattered clouds.15 mph57%30.18 "HgN/A
4:25 PM72 °FPassing clouds.16 mph53%30.18 "HgN/A
3:55 PM72 °FPartly sunny.17 mph53%30.18 "HgN/A
3:25 PM72 °FOvercast.17 mph53%30.18 "HgN/A
2:55 PM70 °FMild.16 mph57%30.21 "HgN/A
2:25 PM70 °FMostly cloudy.16 mph60%30.21 "HgN/A
1:55 PM72 °FScattered clouds.20 mph57%30.21 "HgN/A
1:25 PM72 °FPassing clouds.17 mph57%30.21 "HgN/A
12:55 PM68 °FScattered clouds.16 mph64%30.21 "HgN/A
12:25 PM70 °FScattered clouds.18 mph60%30.21 "HgN/A
11:55 AM68 °FBroken clouds.15 mph69%30.21 "HgN/A
11:25 AM68 °FPartly sunny.17 mph69%30.21 "HgN/A
10:55 AM66 °FBroken clouds.17 mph78%30.21 "HgN/A
10:25 AM64 °FMore clouds than sun.13 mph83%30.21 "HgN/A
9:55 AM63 °FOvercast.13 mph83%30.21 "HgN/A
9:25 AM63 °FPartly sunny.13 mph83%30.21 "HgN/A
8:55 AM61 °FOvercast.12 mph88%30.21 "HgN/A
8:25 AM61 °FBroken clouds.12 mph88%30.21 "HgN/A
7:55 AM61 °FMostly cloudy.10 mph83%30.21 "HgN/A
7:25 AM59 °FMostly cloudy.10 mph88%30.18 "HgN/A
6:55 AM61 °FOvercast.10 mph77%30.21 "HgN/A
6:25 AM61 °FMostly cloudy.10 mph72%30.18 "HgN/A
5:55 AM61 °FOvercast.10 mph72%30.18 "HgN/A
5:25 AM61 °FMostly cloudy.10 mph68%30.21 "HgN/A
4:55 AM61 °FMostly cloudy.13 mph68%30.21 "HgN/A
4:25 AM61 °FOvercast.13 mph72%30.21 "HgN/A
3:55 AM61 °FCool.13 mph68%30.21 "HgN/A
3:25 AM63 °FOvercast.13 mph59%30.21 "HgN/A
2:55 AM63 °FOvercast.10 mph56%30.21 "HgN/A
1:55 AM63 °FPassing clouds.10 mph52%30.21 "HgN/A
1:25 AM63 °FMostly cloudy.10 mph52%30.24 "HgN/A
12:55 AM63 °FOvercast.9 mph56%30.24 "HgN/A
12:25 AM63 °FOvercast.12 mph56%30.24 "HgN/A
11:55 PM
Tue, Sep 27
61 °FPartly cloudy.10 mph59%30.24 "HgN/A
11:25 PM61 °FPassing clouds.10 mph59%30.24 "HgN/A
10:55 PM59 °FMostly cloudy.9 mph63%30.24 "HgN/A
10:25 PM59 °FPassing clouds.6 mph63%30.24 "HgN/A
Weather by CustomWeather, © 2016

See weather overviewHow to use our weather pages